sat.trackr.live / text

‹ back to catalog

STARLINK-31201

NORAD 58870 · 2024-019T

PAYLOAD ACTIVE UNKNOWN

§ Identity

Operator
Country
US
Launch date
2024-01-29
Launch site
AFETR
Launch vehicle
Mass (kg)
RCS (m²)

Purposes: comms

External: N2YO · Heavens-Above · Gunter

§ Orbital elements

Epoch: 2026-09-20T04:35:56.740416Z

Period
94.27 min
Inclination
43.0016°
Eccentricity
0.0001329
Mean motion
15.27578688 rev/d
Perigee alt
482.1 km
Apogee alt
484.0 km
Semi-major
6,861.2 km
B*
4.9225e-5
RAAN
230.0787°
Arg perigee
269.0016°
Mean anomaly
91.0684°
Rev number
14,881

§ Raw data

STARLINK-312011 58870U 24019T   26263.19162894  .00001093  00000+0  49225-4 0  99912 58870  43.0016 230.0787 0001329 269.0016  91.0684 15.27578688148817

JSON: /api/v1/satellites/58870 · /tle

For live sub-satellite position, see the globe view (requires WebGL).

§ Visibility from observer

Set your observer location to see the next 7 days of passes ≥ 10°. The values pass through the URL so the page stays shareable.

No JS? Fill the form by hand. The geolocation button needs JavaScript.